カタログに戻る

IRIDIUM 132

運用中通信PO
NORAD 42961·PAYLOAD·🇺🇸 United States

打ち上げ Oct 9, 2017 から Vandenberg Space Force Base

Loading…

次のパス (今後24時間)

TLE

最新Source: CelesTrak SupGP

元期: Sep 14, 2026, 13:10 UTC

1 42961C 17061G   26257.54895833  .00000743  00000+0  26562-3 0  2578
2 42961  86.4029 347.9100 0002238  96.7269  24.2532 14.34215376    16

AllMySatでIRIDIUM 132をリアルタイム追跡

Download on the App Store